カタログに戻る

FENGYUN 1C DEB

運用中SSO
NORAD 37432·DEBRIS·🇨🇳 China

打ち上げ May 10, 1999 から Taiyuan Satellite Launch Center

Loading…

次のパス (今後24時間)

TLE

経年Source: Space-Track

元期: Sep 5, 2026, 18:34 UTC

1 37432U 99025EHA 26248.77413712  .00001118  00000-0  21868-3 0  9997
2 37432  98.1770 261.3170 0178484 180.9331 179.1560 14.55214907122585

AllMySatでFENGYUN 1C DEBをリアルタイム追跡

Download on the App Store